DIAMANT R/B, 2671

Orbit data source: Space-Track

DIAMANT R/B, 2671 is space debris in LEO originally from a launch on Wed, 08 Feb 1967 UTC launched from the Hamma Guira Space Track Range (HGSTR). Debris objects in space refer to the collection of defunct objects orbiting the Earth. Examples of debris include non-operational satellites, rocket bodies, and fragments generated from explosions, collisions, or faulty payload assembly.

Loading next visibility...
Identifier
2671, 1967-011B
Orbit
LEO
Country
Flag of FRFR
Related business
Manufacturer
Sud
Mission
Spacecraft
Bus & Motor
RUBIS, Unknown motor
Mass
65 kg wet, 65 kg dry
Launch date (UTC)
1967-02-08 (59 years ago)
Launch vehicle
Unknown
Launch site
Hamma Guira Space Track Range (HGSTR)
Object type
Payload
Rocket body
Debris
Shape & HBR
Unknown
Radar Cross Section
Large (>1 m²)

Expand to show TLE details & history
Last TLE update: 14 hours ago

TLE from 14 hours ago
0 DIAMANT R/B
1 02671U 67011B   25310.05406197  .00003254  00000-0  64076-3 0  9994
2 02671  39.9448 209.2624 0334597 347.5690  11.6981 14.33567949 23489
Epoch: 2025-11-06T01:17Z
TLE epoch observation values (Epoch: 2025-11-06T01:17:50.954Z)
Latitude
-0.00001°
Longitude
144.28219°
Altitude
545.146 km
Speed
7.714 km/s
True Right ascension
13h 57m 02s
True Declination
0° 00' 00"
Sunlit
Object was in daylight at epoch
Visualization orbit readout
Latitude
Unknown
Longitude
Unknown
Altitude
Unknown
Speed
Unknown
Apparent Right ascension
Unknown
Apparent Declination
Unknown
Sunlit
N/A
Visualization observer readout
Local Sidereal Time
10:53:18
Azimuth
Unknown
Elevation
Unknown
Doppler factor
Unknown
Orbital elements
Apogee altitude
1,021.769 km
Perigee altitude
542.604 km
Semi-major axis
7,160.324 km
Eccentricity
0.03346
Inclination
39.9448°
RAAN
209.2624°
Arg. of periapsis
347.569°
True anomaly
12.50861°
Mean anomaly
11.6981°
Eccentric anomaly
12.09996°
Mean motion
3.58215 °/min
Orbital period
100.5 mins
BSTAR
0.00064076
Loading maneuver chart data...
Computing Atmospheric mass density...

Documentation

Showing up to 5 results
|